Lid_Strength_Index
8 8 8 8 8 8 9 8 10 8 9 7 6 6 5 5 5 5 5 5 4 4 4 3 3 2 2 2 1 1 1 2 2 1 1 1 1 3 2 0 0 0 0 0
10 9 8 9 8 8 8 8 8 7 8 5 5 5 5 5 5 6 5 5 4 4 3 3 3 3 2 2 2 1 2 2 1 1 1 1 2 2 2 2 1 0 1 1
12 9 9 10 8 8 7 7 7 9 7 5 6 6 5 5 5 5 5 4 4 4 3 3 3 2 2 2 1 2 2 2 1 1 1 1 2 2 2 2 2 1 1 1
12 10 14 9 6 6 7 7 6 6 6 6 5 5 5 4 5 5 4 4 3 3 3 2 2 2 1 2 2 2 2 2 1 1 1 1 1 2 2 2 1 1 1 1
13 12 10 9 8 7 8 8 5 6 6 5 5 5 6 4 3 4 3 3 3 2 2 2 2 2 2 2 2 2 2 2 2 1 2 1 2 2 1 1 1 1 1 1
12 15 14 11 8 7 7 10 7 7 6 6 6 8 7 4 4 3 3 3 3 2 2 2 2 2 2 2 2 2 2 2 1 1 1 2 2 2 1 1 1 1 1 0
14 15 11 9 7 6 11 9 7 6 6 6 7 6 5 4 4 3 3 3 2 2 2 2 2 2 2 2 3 2 1 1 1 1 1 1 2 1 1 1 2 2 1 1
14 15 15 7 8 10 8 6 6 6 6 6 5 5 4 4 4 3 3 3 2 3 3 2 2 2 3 3 2 1 1 1 2 1 2 2 3 2 1 1 2 2 2 2
12 12 7 6 7 6 5 6 5 5 5 5 6 5 5 5 4 4 4 3 3 3 3 2 2 2 3 2 1 2 2 2 2 1 1 2 3 2 2 2 2 2 3 2
11 10 8 7 6 6 5 5 5 4 5 5 5 5 5 4 4 4 4 3 3 3 3 3 2 2 2 2 1 2 2 2 2 2 2 1 1 1 2 2 2 3 2 2
10 8 7 7 6 6 5 5 5 5 5 5 4 5 4 5 4 4 4 3 3 3 3 3 2 2 1 1 1 2 2 2 2 2 2 2 3 2 1 1 3 2 2 2
10 8 8 7 6 6 7 7 6 6 6 5 5 4 4 4 4 4 4 3 3 3 3 3 2 2 2 1 1 2 2 2 2 2 2 2 3 5 12 11 12 12 11 4
8 6 7 7 7 6 7 7 6 7 6 6 6 5 5 4 4 4 3 3 3 3 3 2 2 2 1 1 1 1 2 2 2 2 2 2 2 2 3 7 12 13 12 10
6 6 8 7 8 7 7 7 7 7 6 6 6 5 5 5 4 4 3 2 2 2 2 2 2 2 1 1 1 1 1 5 2 2 2 2 2 2 2 2 3 4 10 8
7 6 7 6 7 7 7 6 7 7 6 6 5 5 5 5 5 4 3 2 2 2 2 2 2 2 1 1 1 1 2 1 1 1 1 2 1 2 2 2 2 3 4 7
7 7 6 7 7 7 6 6 6 6 6 5 4 4 4 3 3 3 2 2 3 3 2 2 2 1 1 1 1 1 1 3 2 1 2 2 2 2 2 2 2 2 2 2
8 8 7 7 6 6 6 5 5 4 4 4 3 3 3 3 3 3 3 2 2 2 2 2 2 1 1 1 1 1 1 1 2 1 2 2 2 2 2 2 2 2 2 1
6 6 5 5 5 5 5 4 4 3 4 3 3 3 3 3 4 3 3 2 2 2 2 1 1 1 1 1 1 1 1 2 1 1 1 2 2 1 2 2 1 2 1 2
4 4 4 4 4 4 4 4 3 3 3 3 3 3 3 3 3 3 2 3 3 3 2 1 3 1 1 1 1 1 1 1 1 1 1 2 2 1 2 1 2 1 1 1
5 4 4 4 3 3 3 3 3 3 3 3 3 3 3 3 3 3 2 3 3 2 1 1 1 1 1 1 1 1 1 1 1 1 1 1 2 2 1 3 1 1 1 1
4 3 3 3 3 3 3 3 3 3 3 2 3 3 3 2 2 2 3 4 2 1 1 1 1 1 1 1 1 1 1 1 1 1 1 1 2 1 1 1 1 1 1 2
3 3 3 3 3 3 3 2 2 3 3 3 2 2 3 3 2 2 2 2 1 4 1 1 1 2 1 1 1 1 1 1 1 1 1 1 1 1 1 1 1 1 1 1
3 3 3 3 3 3 2 2 2 2 3 3 3 2 3 2 2 3 3 1 1 2 1 1 3 3 3 1 1 2 2 2 2 2 1 1 1 1 1 1 1 1 1 1
3 3 3 2 2 3 3 2 2 2 2 2 2 2 2 2 2 1 0 2 4 3 1 1 2 3 3 1 2 2 2 2 2 2 2 6 1 1 1 1 1 0 1 2
3 3 3 3 3 3 3 2 2 2 2 2 2 1 1 0 1 1 1 1 4 2 1 4 4 4 1 0 1 1 1 1 1 1 2 2 3 2 1 1 1 1 1 1
3 3 3 2 2 2 2 2 2 2 2 2 2 1 1 0 1 1 0 2 0 2 1 1 1 1 0 1 0 0 0 1 2 2 2 2 2 3 3 2 2 2 2 2
3 5 3 3 3 3 3 3 3 2 2 2 2 1 1 1 1 1 2 1 1 1 1 0 0 1 0 0 1 0 0 1 3 1 2 2 2 3 3 3 3 3 3 3